EHI
0 0 0 0 0 0 0 0 0 0 0 0 0 0 0 0 0 0 0 0 0 0 0 0 0 0 0 0 0 0 0 0 0 0 0 0 0 0 0 0 0 0 0 0
0 0 0 0 0 0 0 0 0 0 0 0 0 0 0 0 0 0 0 0 0 0 0 0 0 0 0 0 0 0 0 0 0 0 0 0 0 0 0 0 0 0 0 0
0 0 0 0 0 0 0 0 0 0 0 0 0 0 0 0 0 0 0 0 0 0 0 0 0 0 0 0 0 0 0 0 0 0 0 0 0 0 0 0 0 0 0 0
0 0 0 0 0 0 0 0 0 0 0 0 0 0 0 0 0 0 0 0 0 0 0 0 0 0 0 0 0 0 0 0 0 0 0 0 0 0 0 0 0 0 0 0
0 0 0 0 0 0 0 0 0 0 0 0 0 0 0 0 0 0 0 0 0 0 0 0 0 0 0 0 0 0 0 0 0 0 0 0 0 0 0 0 0 0 0 0
0 0 0 0 0 0 0 0 0 0 0 0 0 0 0 0 0 0 0 0 0 0 0 0 0 0 0 0 0 0 0 0 0 0 0 0 0 0 0 0 0 0 0 0
0 0 0 0 0 0 0 0 0 0 0 0 0 0 0 0 0 0 0 0 0 0 0 0 0 0 0 0 0 0 0 0 0 0 0 0 0 0 0 0 0 0 0 0
0 0 0 0 0 0 0 0 0 0 0 0 0 0 0 0 0 0 0 0 0 0 0 0 0 0 0 0 0 0 0 0 0 0 0 0 0 0 0 0 0 0 0 0
0 0 0 0 0 0 0 0 0 0 0 0 0 0 0 0 0 0 0 0 0 0 0 0 0 0 0 0 0 0 0 0 0 0 0 0 0 0 0 0 0 0 0 0
0 0 0 0 0 0 0 0 0 0 0 0 0 0 0 0 0 0 0 0 0 0 0 0 0 0 0 0 0 0 0 0 0 0 0 0 0 0 0 0 0 0 0 0
0 0 0 0 0 0 0 0 0 0 0 0 0 0 0 0 0 0 0 0 0 0 0 0 0 0 0 0 0 0 0 0 0 0 0 0 0 0 0 0 0 0 0 0
0 0 0 0 0 0 0 0 0 0 0 0 0 0 0 0 0 0 0 0 0 0 0 0 0 0 0 0 0 0 0 0 0 0 0 0 0 0 0 0 0 0 0 0
0 0 0 0 0 0 0 0 0 0 0 0 0 0 0 0 0 0 0 0 0 0 0 0 0 0 0 0 0 0 0 0 0 0 0 0 0 0 0 0 0 0 0 0
0 0 0 0 0 0 0 0 0 0 0 0 0 0 0 0 0 0 0 0 0 0 0 0 0 0 0 0 0 0 0 0 0 0 0 0 0 0 0 0 0 0 0 0
0 0 0 0 0 0 0 0 0 0 0 0 0 0 0 0 0 0 0 0 0 0 0 0 0 0 0 0 0 0 0 0 0 0 0 0 0 0 0 0 0 0 0 0
0 0 0 0 0 0 0 0 0 0 0 0 0 0 0 0 0 0 0 0 0 0 0 0 0 0 0 0 0 0 0 0 0 0 0 0 0 0 0 0 0 0 0 0
0 0 0 0 0 0 0 0 0 0 0 0 0 0 0 0 0 0 0 0 0 0 0 0 0 0 0 0 0 0 0 0 0 0 0 0 0 0 0 0 0 0 0 0
0 0 0 0 0 0 0 0 0 0 0 0 0 0 0 0 0 0 0 0 0 0 0 0 0 0 0 0 0 0 0 0 0 0 0 0 0 0 0 0 0 0 0 0
0 0 0 0 0 0 0 0 0 0 0 0 0 0 0 0 0 0 0 0 0 0 0 0 0 0 0 0 0 0 0 0 0 0 0 0 0 0 0 0 0 0 0 0
0 0 0 0 0 0 0 0 0 0 0 0 0 0 0 0 0 0 0 0 0 0 0 0 0 0 0 0 0 0 0 0 0 0 0 0 0 0 0 0 0 0 0 0
0 0 0 0 0 0 0 0 0 0 0 0 0 0 0 0 0 0 0 0 0 0 0 0 0 0 0 0 0 0 0 0 0 0 0 0 0 0 0 0 0 0 0 0
0 0 0 0 0 0 0 0 0 0 0 0 0 0 0 0 0 0 0 0 0 0 0 0 0 0 0 0 0 0 0 0 0 0 0 0 0 0 0 0 0 0 0 0
0 0 0 0 0 0 0 0 0 0 0 0 0 0 0 0 0 0 0 0 0 0 0 0 0 0 0 0 0 0 0 0 0 0 0 0 0 0 0 0 0 0 0 0
0 0 0 0 0 0 0 0 0 0 0 0 0 0 0 0 0 0 0 0 0 0 0 0 0 0 0 0 0 0 0 0 0 0 0 0 0 0 0 0 0 0 0 0
0 0 0 0 0 0 0 0 0 0 0 0 0 0 0 0 0 0 0 0 0 0 0 0 0 0 0 0 0 0 0 0 0 0 0 0 0 0 0 0 0 0 0 0
0 0 0 0 0 0 0 0 0 0 0 0 0 0 0 0 0 0 0 0 0 0 0 0 0 0 0 0 0 0 0 0 0 0 0 0 0 0 0 0 0 0 0 0
0 0 0 0 0 0 0 0 0 0 0 0 0 0 0 0 0 0 0 0 0 0 0 0 0 0 0 0 0 0 0 0 0 0 0 0 0 0 0 0 0 0 0 0
Wind_Speed
10 8 6 7 8 10 13 11 9 10 11 13 9 7 5 4 6 7 9 11 12 12 11 10 10 9 9 8 7 6 5 5 5 5 5 5 6 7 7 7 9 8 8 8
7 6 4 8 13 14 14 13 15 15 19 16 11 5 4 4 7 9 10 13 13 13 12 12 12 10 9 8 7 6 5 5 5 5 5 6 6 7 7 8 8 8 8 8
5 1 4 12 13 16 10 12 11 16 16 8 6 7 7 8 8 10 11 12 13 14 13 12 12 11 10 8 6 6 5 5 5 5 6 6 7 7 7 8 7 8 8 8
4 4 10 11 1 7 11 10 12 12 10 9 9 6 6 7 9 10 10 11 13 13 12 10 10 9 9 8 7 6 6 6 6 6 7 6 6 7 7 7 7 7 7 8
3 5 11 9 3 5 7 9 12 17 17 16 8 6 8 11 11 10 10 10 11 11 11 10 10 10 9 8 7 7 7 7 7 6 6 6 6 7 6 6 7 7 7 8
4 5 10 9 2 2 3 8 9 11 13 12 2 4 9 4 6 7 7 8 9 10 10 11 11 11 11 9 9 9 9 8 6 5 5 6 7 6 6 6 7 7 7 7
6 8 14 6 4 4 4 9 4 8 10 8 10 13 8 5 5 6 7 8 9 11 11 12 12 12 11 10 11 10 8 6 5 5 6 6 6 5 6 6 6 6 7 7
7 8 16 7 8 10 12 5 4 6 8 9 11 11 7 7 8 8 8 8 10 10 10 10 13 13 12 12 10 8 7 6 6 6 6 5 5 6 5 5 6 6 6 7
14 15 7 11 13 11 5 6 7 7 9 9 10 11 10 9 9 9 10 10 10 10 10 10 13 14 14 11 9 8 7 6 6 6 5 5 5 5 4 4 4 5 5 6
9 13 11 9 12 13 13 14 15 13 11 9 12 12 11 10 10 10 11 12 11 11 12 13 13 13 12 9 9 9 8 7 6 5 5 5 4 4 3 3 4 4 5 6
11 9 8 11 13 17 17 16 15 15 13 13 13 14 13 11 11 12 12 12 12 14 15 15 14 14 11 10 10 9 8 7 6 5 4 4 4 4 4 4 5 5 4 4
15 10 8 11 7 9 12 14 14 14 14 12 12 15 13 12 11 11 12 13 13 15 15 15 15 14 13 11 12 10 8 7 6 4 4 4 3 4 8 8 11 12 11 10
22 17 13 16 17 15 15 16 15 14 14 14 12 11 12 11 9 10 12 15 18 18 16 15 15 15 14 13 13 12 10 8 6 5 4 4 3 3 4 6 9 10 10 12
16 14 16 17 19 20 19 17 15 14 12 11 10 9 9 9 8 11 15 17 16 14 14 14 15 15 15 15 14 12 10 10 8 5 5 4 4 3 3 3 4 4 7 11
17 16 19 19 20 20 17 14 13 14 12 11 9 9 10 11 13 14 12 11 12 14 15 15 16 15 15 16 15 13 11 7 7 5 5 4 4 3 3 4 4 4 4 6
14 14 15 17 20 20 17 15 13 14 11 10 9 10 12 13 12 10 10 13 16 19 18 18 17 16 16 16 15 12 10 14 11 6 5 5 4 4 3 3 3 3 4 4
13 13 13 14 15 15 13 11 10 11 10 10 11 10 9 9 9 10 12 14 16 16 16 17 16 15 17 17 15 11 9 11 16 8 6 5 5 4 4 3 3 3 4 5
7 7 8 8 9 11 11 10 10 10 10 10 10 8 8 10 13 13 11 11 11 12 14 14 13 14 16 16 14 10 10 9 8 7 6 6 5 4 4 4 4 4 3 4
8 8 9 10 9 9 9 10 10 10 10 8 8 9 10 11 11 9 8 11 15 17 14 14 22 18 16 18 17 10 10 10 9 8 7 9 7 5 5 4 4 3 3 3
8 8 8 9 9 8 9 10 10 10 9 8 9 9 10 9 8 8 10 14 14 9 9 14 18 15 16 18 21 11 12 11 10 9 8 7 6 6 5 5 4 3 3 2
7 8 8 9 10 10 10 10 10 11 11 9 9 11 11 9 7 8 9 12 9 8 12 21 15 13 14 17 21 12 12 11 11 10 9 8 7 6 6 5 4 4 3 2
7 8 9 10 11 12 11 10 10 11 11 10 10 10 9 8 7 8 11 9 7 14 12 12 12 17 20 21 14 13 13 12 11 9 9 8 8 7 6 6 5 4 3 2
9 9 10 11 11 11 12 11 10 9 10 10 10 10 10 9 7 8 9 6 6 16 13 11 17 26 29 18 13 13 14 13 11 10 9 9 8 7 6 6 5 4 3 3
10 11 10 10 9 10 13 13 11 9 9 10 10 10 9 8 7 7 6 9 14 16 12 15 25 29 28 13 12 13 13 12 11 10 9 8 7 7 6 6 5 4 4 4
11 11 11 11 11 11 12 12 10 10 9 8 9 9 8 7 7 5 5 7 14 16 10 17 26 28 19 11 13 13 12 12 11 10 10 9 9 8 7 6 6 5 4 4
11 11 11 11 11 10 9 9 8 8 7 8 8 6 6 5 6 5 5 7 10 14 10 9 14 20 13 12 12 13 12 13 13 11 10 10 9 9 8 7 8 6 5 4
12 11 10 9 9 9 8 8 9 9 8 8 9 6 5 5 5 5 6 6 7 8 8 9 10 12 12 12 12 11 11 10 10 10 10 10 9 9 8 9 7 6 5 4
Wind_Direction
273 276 244 243 230 200 207 216 229 247 259 270 284 295 284 224 193 186 185 188 190 190 187 185 184 185 185 188 185 186 200 223 243 257 270 278 283 284 284 284 287 283 283 284
279 253 254 265 244 226 224 229 244 263 274 270 275 271 259 233 207 206 203 199 196 192 190 189 187 186 182 184 182 180 200 224 243 259 269 275 279 279 281 281 280 281 283 286
279 184 316 267 238 207 206 210 205 228 241 257 254 242 241 238 225 218 212 201 196 196 195 191 187 181 180 178 169 177 203 225 240 251 260 263 273 280 280 280 281 284 284 286
286 317 253 246 302 191 205 231 218 239 257 265 262 275 265 243 233 229 213 201 196 192 190 183 174 168 162 160 168 186 208 225 235 242 252 260 267 274 278 279 282 283 285 286
257 268 276 273 218 172 194 260 226 231 251 261 273 323 280 246 226 220 208 195 189 183 178 170 166 160 154 165 177 195 213 223 229 234 247 259 268 273 276 282 284 283 285 286
214 236 250 260 136 100 121 281 249 213 235 251 212 284 271 227 195 201 188 175 170 165 162 165 164 156 163 179 190 206 212 218 223 229 243 255 263 272 278 281 281 285 287 286
219 238 262 259 141 126 180 246 225 205 225 226 206 226 241 189 195 193 182 170 162 163 170 172 163 161 177 188 203 207 203 208 218 229 240 251 262 270 276 281 286 289 292 294
189 212 253 194 152 194 221 246 229 232 233 232 235 245 233 212 208 195 184 173 167 170 173 167 165 170 185 200 201 191 190 201 218 231 241 249 256 267 272 282 293 296 301 303
197 216 240 174 205 227 259 272 263 257 255 244 249 251 240 227 213 203 192 184 177 175 172 171 174 180 192 198 185 180 184 203 220 232 239 242 249 262 275 283 288 295 301 305
241 249 253 231 234 251 253 252 259 261 260 249 247 251 246 231 216 206 198 190 181 175 180 184 185 190 194 184 175 174 189 205 217 226 238 246 250 250 255 266 277 287 295 301
250 260 283 265 238 243 252 255 257 259 253 245 243 248 241 233 219 208 200 191 185 189 193 192 186 192 190 178 170 178 191 204 213 218 226 243 250 249 258 240 253 274 264 272
251 244 236 260 254 247 254 259 256 258 261 250 234 242 240 234 220 206 199 190 191 196 197 191 187 191 187 178 173 179 193 202 205 207 216 228 247 274 285 283 288 292 292 295
258 266 260 268 274 272 268 269 267 260 256 260 251 236 234 234 220 204 197 194 198 199 197 190 188 189 185 179 178 184 192 194 196 200 208 220 229 249 281 300 304 308 307 308
261 269 269 265 266 270 270 270 271 269 262 257 256 246 234 233 222 209 206 202 198 195 194 191 190 191 182 177 180 187 189 199 198 195 202 211 218 230 247 271 296 301 312 315
259 254 257 263 267 270 273 275 277 275 272 267 253 241 232 229 227 222 211 193 187 193 196 194 194 191 177 176 181 185 187 191 193 188 198 205 210 222 240 256 269 285 297 311
270 266 263 265 269 273 277 279 278 280 279 270 260 245 234 229 231 220 197 185 190 200 199 196 197 187 174 176 179 183 188 195 189 188 195 201 205 216 233 247 263 277 287 291
275 276 274 274 279 285 291 295 293 292 292 283 270 258 244 233 230 223 209 201 203 204 199 197 193 179 174 176 177 179 180 192 196 191 193 198 200 209 220 230 246 263 271 289
297 302 306 307 310 313 316 317 309 301 291 282 277 262 240 228 231 230 216 201 203 209 204 194 183 175 175 175 176 175 175 179 183 186 190 197 199 203 211 222 237 255 270 294
351 345 339 336 331 324 316 310 304 297 291 289 282 266 250 240 235 229 203 195 204 214 206 187 185 178 177 180 175 174 174 176 180 185 188 201 206 202 207 215 228 242 259 274
342 336 333 325 320 312 305 303 304 303 302 298 287 276 266 253 235 218 204 211 215 210 180 181 184 179 178 181 177 175 176 177 180 184 187 192 195 199 204 210 216 229 242 257
325 322 319 316 313 310 307 309 309 304 300 295 281 273 268 262 238 216 212 228 216 181 176 186 185 182 180 180 179 176 177 178 181 183 186 189 193 196 199 202 208 218 225 239
315 314 314 312 310 308 306 302 295 292 293 290 282 275 270 264 245 229 225 227 196 183 181 187 184 184 183 181 179 176 178 179 180 181 184 186 188 192 195 194 201 209 211 218
304 300 299 297 295 294 295 292 285 282 283 283 281 276 266 257 238 233 244 216 185 194 189 188 188 187 185 180 179 178 178 179 181 182 184 185 186 187 188 190 193 196 198 208
291 288 284 283 284 287 288 286 281 275 271 272 268 262 259 261 256 235 229 202 197 199 196 191 191 189 185 181 179 178 179 179 179 179 179 180 181 181 182 182 185 189 194 200
281 280 280 281 280 279 278 279 280 279 275 270 266 258 245 238 245 243 213 200 203 202 194 194 192 191 185 181 180 180 178 178 177 175 177 178 179 180 181 180 181 184 189 194
278 276 274 268 267 272 275 275 273 272 271 274 272 258 245 237 238 236 219 204 203 201 189 183 187 190 184 181 182 179 177 177 179 179 177 177 177 176 178 180 179 181 185 186
276 274 274 273 267 261 261 260 264 267 263 261 269 263 244 235 228 224 215 205 201 197 185 181 184 184 179 178 179 178 175 174 173 172 173 174 175 176 177 176 177 176 176 177